Tracking 18840 objects as of 18-November-2017
HD Live streaming from Space Station
objects crossing your sky now

COSMOS 839

Track COSMOS 839 now!
10-day predictions
COSMOS 839 is classified as:


NORAD ID: 9011
Int'l Code: 1976-067A
Perigee: 993.7 km
Apogee: 2,094.9 km
Inclination: 65.9 °
Period: 116.8 minutes
Semi major axis: 7915 km
RCS: 0.8498 m2 (medium)
Launch date: July 8, 1976
Source: Commonwealth of Independent States (former USSR) (CIS)
Launch site: PLESETSK MISSILE AND SPACE COMPLEX (PKMTR)
aabbcc
Your satellite tracking list
Your tracking list is empty




NASA's NSSDC Master Catalog

Two Line Element Set (TLE):
1  9011U 76067A   17321.94856005 +.00000002 +00000-0 +20395-3 0  9992
2  9011 065.8532 199.6726 0695642 062.8060 304.2083 12.32829147873878
Source of the keplerian elements: AFSPC